Weather History for Omaha, NE

Change the Weather History Date:

Saturday, November 23, 2013

  Actual Average Record
Temperature  
Mean Temperature 17 °F 35 °F  
Max Temperature 22 °F 44 °F 64 °F (2006)
Min Temperature 12 °F 25 °F 1 °F (1898)
Degree Days  
Heating Degree Days 48 30  
Month to date heating degree days 569 559  
Since 1 July heating degree days 976 1044  
Cooling Degree Days 0 0  
Month to date cooling degree days 0 0  
Year to date cooling degree days 1294 1112  
Moisture  
Dew Point 6 °F    
Average Humidity 63    
Maximum Humidity 80    
Minimum Humidity 45    
Precipitation  
Precipitation 0.00 in 0.05 in 1.95 in (1931)
Month to date precipitation 1.06 1.31  
Year to date precipitation 28.80 29.25  
Snow  
Snow 0.00 in 0.10 in - ()
Month to date snowfall 0.4 1.4  
Since 1 July snowfall 0.4 1.7  
Snow Depth T in    
Sea Level Pressure  
Sea Level Pressure 30.86 in    
Wind  
Wind Speed 8 mph (North)    
Max Wind Speed 18 mph    
Max Gust Speed 23 mph    
Visibility 10 miles    
Events      
T = Trace of Precipitation, MM = Missing Value Source: NWS Daily Summary

Daily Weather History Graph

Daily Weather History Graph

Search for Another Location

Airport:

Trip Planner

Search our weather history database for the weather conditions in past years. The results will help you decide how hot, cold, wet, or windy it might be!

Date:

Astronomy

Nov. 23, 2013 Rise Set
Actual Time 7:21 AM CST 4:58 PM CST
Civil Twilight 6:51 AM CST 5:28 PM CST
Nautical Twilight 6:17 AM CST 6:02 PM CST
Astronomical Twilight 5:44 AM CST 6:35 PM CST
Moon 10:29 PM CST (11/23) 11:37 AM CST (11/23)
Length of Visible Light 10h 37m
Length of Day
9h 36m
Waning Gibbous, 69% of the Moon is Illuminated
Nov 23
Waning Gibbous
Nov 25
Last Quarter
Dec 2
New
Dec 9
First Quarter
Dec 17
Full

Hourly Weather History & Observations

Time (CST) Temp. Windchill Dew Point Humidity Pressure Visibility Wind Dir Wind Speed Gust Speed Precip Events Conditions
12:52 AM 19.9 °F 8.6 °F 12.0 °F 71% 30.71 in 10.0 mi North 10.4 mph - N/A   Mostly Cloudy
1:52 AM 19.9 °F 10.1 °F 12.0 °F 71% 30.74 in 10.0 mi North 8.1 mph - N/A   Scattered Clouds
2:52 AM 19.9 °F 8.6 °F 12.9 °F 74% 30.76 in 10.0 mi North 10.4 mph - N/A   Mostly Cloudy
3:52 AM 19.9 °F 5.2 °F 12.9 °F 74% 30.77 in 10.0 mi North 17.3 mph - N/A   Mostly Cloudy
4:52 AM 18.0 °F 5.4 °F 12.9 °F 81% 30.81 in 10.0 mi North 11.5 mph - N/A   Mostly Cloudy
5:52 AM 15.1 °F 3.3 °F 5.0 °F 64% 30.85 in 10.0 mi North 9.2 mph - N/A   Scattered Clouds
6:52 AM 12.9 °F 0.7 °F 3.9 °F 67% 30.88 in 10.0 mi North 9.2 mph - N/A   Mostly Cloudy
7:52 AM 12.0 °F -2.7 °F 3.9 °F 70% 30.90 in 10.0 mi NNW 12.7 mph - N/A   Mostly Cloudy
8:52 AM 14.0 °F -0.2 °F 3.9 °F 64% 30.92 in 10.0 mi NNW 12.7 mph - N/A   Mostly Cloudy
9:52 AM 16.0 °F 3.6 °F 3.9 °F 59% 30.94 in 10.0 mi North 10.4 mph - N/A   Mostly Cloudy
10:52 AM 18.0 °F 4.8 °F 5.0 °F 57% 30.95 in 10.0 mi NNW 12.7 mph - N/A   Mostly Cloudy
11:52 AM 19.0 °F 6.1 °F 6.1 °F 57% 30.92 in 10.0 mi NNW 12.7 mph - N/A   Scattered Clouds
12:52 PM 19.9 °F 9.3 °F 6.1 °F 55% 30.91 in 10.0 mi NNW 9.2 mph - N/A   Scattered Clouds
1:52 PM 21.0 °F 12.4 °F 3.9 °F 48% 30.89 in 10.0 mi NNW 6.9 mph - N/A   Scattered Clouds
2:52 PM 21.9 °F 11.0 °F 5.0 °F 48% 30.88 in 10.0 mi North 10.4 mph - N/A   Scattered Clouds
3:52 PM 21.0 °F 11.4 °F 5.0 °F 50% 30.87 in 10.0 mi NNW 8.1 mph - N/A   Partly Cloudy
4:52 PM 17.1 °F 8.7 °F 3.9 °F 56% 30.88 in 10.0 mi NNW 5.8 mph - N/A   Partly Cloudy
5:52 PM 17.1 °F - 5.0 °F 59% 30.87 in 10.0 mi Calm Calm - N/A   Partly Cloudy
6:52 PM 16.0 °F - 7.0 °F 68% 30.87 in 10.0 mi Calm Calm - N/A   Partly Cloudy
7:52 PM 14.0 °F 8.2 °F 6.1 °F 71% 30.86 in 10.0 mi East 3.5 mph - N/A   Partly Cloudy
8:52 PM 15.1 °F - 6.1 °F 68% 30.85 in 10.0 mi Calm Calm - N/A   Partly Cloudy
9:52 PM 14.0 °F 8.2 °F 6.1 °F 71% 30.84 in 10.0 mi ESE 3.5 mph - N/A   Scattered Clouds
10:52 PM 12.9 °F 6.9 °F 5.0 °F 71% 30.83 in 10.0 mi ESE 3.5 mph - N/A   Scattered Clouds
11:52 PM 12.9 °F 6.9 °F 3.9 °F 67% 30.84 in 10.0 mi ESE 3.5 mph - N/A   Scattered Clouds